write mail from CFAD0::NAKANO on 2004-01-21 21:27:50(JST).

 



◎P/2004 A1の軌道と予報位置です



 上尾の門田健一氏によって,1月14日に観測されました.氏の CCD全光度は

18.3等でした.

 

    P/2004 A1                                                             

T 2005 Feb. 22.65322 TT                                 Nakano

q   5.3235776            (2000.0)            P               Q

n   0.04432780     Peri.   37.06184     -0.94412391     -0.29126593

a   7.9071246      Node   125.30003     +0.23844970     -0.92671907

e   0.3267366      Incl.   10.89470     +0.22753413     -0.23739403

P  22.23 (+/-33.74 day)

From 21 observations 2003 Dec. 18-2004 Jan. 14.

 

Date/        TT  R.A.(2000) Decl.     Delta   r     Daily motion  Mag.  Moon Age

              h    h  m       。  ,                      ,  / PA 。  m1      。

2004 Jan. 11 14  08 46.14  +18 07.1   4.652  5.593     6.4 / 296  18.3   27  .85

          12 14  08 45.73  +18 09.9   4.646  5.592     6.5 / 295  18.3   40  .77

          13 14  08 45.32  +18 12.7   4.640  5.591     6.6 / 295  18.3   54  .67

          14 14  08 44.90  +18 15.5   4.634  5.590     6.7 / 295  18.3   67  .57

          15 14  08 44.48  +18 18.4   4.629  5.588     6.7 / 295  18.3   81  .46

          16 14  08 44.05  +18 21.2   4.624  5.587     6.8 / 295  18.3   95  .35

          17 14  08 43.62  +18 24.1   4.619  5.586     6.9 / 295  18.3  109  .24

          18 14  08 43.18  +18 27.0   4.615  5.585     6.9 / 295  18.3  124  .15

          19 14  08 42.74  +18 29.8   4.610  5.583     7.0 / 295  18.3  139  .07

          20 14  08 42.29  +18 32.7   4.607  5.582     7.0 / 295  18.3  154  .03

          21 14  08 41.85  +18 35.7   4.603  5.581     7.0 / 294  18.3  168  .00

          22 14  08 41.39  +18 38.6   4.600  5.580     7.1 / 294  18.3  174  .01

          23 14  08 40.94  +18 41.5   4.597  5.578     7.1 / 294  18.3  162  .04

          24 14  08 40.49  +18 44.4   4.595  5.577     7.1 / 294  18.3  148  .09

          25 14  08 40.03  +18 47.3   4.592  5.576     7.1 / 294  18.3  135  .17

          26 14  08 39.57  +18 50.3   4.591  5.575     7.1 / 294  18.3  122  .25

          27 14  08 39.11  +18 53.2   4.589  5.574     7.1 / 294  18.3  109  .34

          28 14  08 38.65  +18 56.1   4.588  5.572     7.1 / 294  18.3   97  .44

          29 14  08 38.19  +18 59.0   4.587  5.571     7.1 / 294  18.3   85  .53

          30 14  08 37.73  +19 01.9   4.586  5.570     7.1 / 294  18.3   73  .62

          31 14  08 37.27  +19 04.8   4.586  5.569     7.1 / 294  18.3   61  .71

     Feb.  1 14  08 36.81  +19 07.7   4.586  5.568     7.1 / 294  18.3   49  .79

           2 14  08 36.36  +19 10.6   4.586  5.566     7.1 / 294  18.3   37  .86

           3 14  08 35.90  +19 13.4   4.587  5.565     7.0 / 294  18.3   25  .92

           4 14  08 35.45  +19 16.3   4.588  5.564     7.0 / 294  18.3   13  .97

           5 14  08 35.00  +19 19.1   4.589  5.563     6.9 / 294  18.3    4  .99

           6 14  08 34.55  +19 21.9   4.590  5.562     6.9 / 294  18.3   14 1.00

           7 14  08 34.10  +19 24.7   4.592  5.560     6.8 / 294  18.3   27  .98

           8 14  08 33.66  +19 27.5   4.594  5.559     6.8 / 294  18.3   40  .95

           9 14  08 33.22  +19 30.2   4.597  5.558     6.7 / 294  18.3   53  .89

          10 14  08 32.78  +19 32.9   4.600  5.557     6.7 / 294  18.3   67  .81

          11 14  08 32.35  +19 35.6   4.603  5.556     6.6 / 294  18.3   81  .72

NAKANO

         **** Don't distribute anyone except personal use only ****

                (C) Copyright 2004 OAA/ComputingSection

write mail from CFAD0::NAKANO on 2004-01-15 04:50:03(JST).

 

戻ります。